Location: *
(50.3440°N, 18.6237°E)
Time: 13:46:22
(UTC+00:00)

USA 281 - Pass Details

Date: 30 November 2020
Orbit: 1074 x 1084 km, 106.0° (Epoch: 22 January)

Event Time Altitude Azimuth Distance (km) Brightness Sun altitude
Rises 18:09:00 0° 176° (S) 3,870 6.1 -31.6°
Reaches altitude 10° 18:11:40 10° 183° (S) 2,917 5.5 -32.0°
Maximum altitude 18:17:49 42° 253° (WSW) 1,502 4.2 -33.0°
Drops below altitude 10° 18:24:01 10° 323° (NW) 2,928 5.9 -34.0°
Sets 18:26:42 0° 330° (NNW) 3,886 6.6 -34.4°
